Weather History for Hattiesburg, MS

Change the Weather History Date:

Thursday, January 16, 2003

  Actual Average Record
Temperature  
Mean Temperature 49 °F 48 °F  
Max Temperature 62 °F 60 °F 80 °F (1952)
Min Temperature 35 °F 37 °F 21 °F (1972)
Degree Days  
Heating Degree Days 16 17  
Month to date heating degree days 265  
Since 1 July heating degree days 1050  
Cooling Degree Days 0 0  
Month to date cooling degree days 0  
Year to date cooling degree days 0  
Moisture  
Dew Point 37 °F    
Average Humidity 63    
Maximum Humidity 93    
Minimum Humidity 42    
Precipitation  
Precipitation 0.00 in 0.16 in 2.50 in (1955)
Month to date precipitation 2.83  
Year to date precipitation 2.83  
Sea Level Pressure  
Sea Level Pressure 30.15 in    
Wind  
Wind Speed 12 mph (West)    
Max Wind Speed 20 mph    
Max Gust Speed 32 mph    
Visibility 10 miles    
Events Rain    
T = Trace of Precipitation, MM = Missing Value Source: NWS Daily Summary

Daily Weather History Graph

Daily Weather History Graph

Search for Another Location

Airport:

Trip Planner

Search our weather history database for the weather conditions in past years. The results will help you decide how hot, cold, wet, or windy it might be!

Date:

Astronomy

Jan. 16, 2003 Rise Set
Actual Time 6:56 AM CST 5:17 PM CST
Civil Twilight 6:30 AM CST 5:43 PM CST
Nautical Twilight 6:00 AM CST 6:13 PM CST
Astronomical Twilight 5:31 AM CST 6:42 PM CST
Moon 3:38 PM CST (1/16) 5:30 AM CST (1/16)
Length of Visible Light 11h 13m
Length of Day
10h 21m
Waxing Gibbous, 97% of the Moon is Illuminated
Jan 16
Waxing Gibbous
Jan 18
Full
Jan 25
Last Quarter
Feb 1
New
Feb 9
First Quarter

Hourly Weather History & Observations

Time (CST) Temp. Windchill Dew Point Humidity Pressure Visibility Wind Dir Wind Speed Gust Speed Precip Events Conditions
6:53 AM 39.0 °F 34.8 °F 37.0 °F 93% 30.21 in 10.0 mi SE 5.8 mph - N/A   Overcast
8:53 AM 48.9 °F - 42.1 °F 77% 30.17 in 10.0 mi South 9.2 mph - N/A   Overcast
9:53 AM 54.0 °F - 46.0 °F 75% 30.15 in 10.0 mi South 11.5 mph - N/A   Overcast
10:53 AM 57.0 °F - 48.0 °F 72% 30.12 in 10.0 mi SSW 11.5 mph 19.6 mph N/A   Overcast
11:53 AM 59.0 °F - 48.9 °F 69% 30.07 in 10.0 mi SSW 10.4 mph - 0.00 in Rain Light Rain
12:53 PM 61.0 °F - 48.9 °F 64% 30.04 in 10.0 mi WSW 11.5 mph 21.9 mph 0.00 in   Overcast
1:40 PM 60.8 °F - 48.2 °F 63% 30.03 in 10.0 mi West 10.4 mph 20.7 mph N/A   Overcast
1:53 PM 60.1 °F - 48.9 °F 67% 30.03 in 10.0 mi West 16.1 mph 24.2 mph N/A   Mostly Cloudy
2:08 PM 60.8 °F - 48.2 °F 63% 30.03 in 10.0 mi West 19.6 mph - N/A   Scattered Clouds
2:53 PM 62.1 °F - 43.0 °F 50% 30.05 in 10.0 mi West 16.1 mph 25.3 mph N/A   Mostly Cloudy
3:53 PM 60.1 °F - 37.9 °F 44% 30.05 in 10.0 mi WNW 13.8 mph - N/A   Partly Cloudy
4:53 PM 57.9 °F - 35.1 °F 42% 30.06 in 10.0 mi WNW 16.1 mph 20.7 mph N/A   Partly Cloudy
5:53 PM 46.9 °F - 33.1 °F 59% 30.15 in 10.0 mi NW 18.4 mph 32.2 mph N/A   Partly Cloudy
6:53 PM 42.1 °F 34.9 °F 26.1 °F 53% 30.21 in 10.0 mi NW 13.8 mph 24.2 mph N/A   Clear
7:53 PM 41.0 °F 31.9 °F 26.1 °F 55% 30.24 in 10.0 mi NW 19.6 mph 28.8 mph N/A   Mostly Cloudy
8:53 PM 39.0 °F 29.6 °F 26.1 °F 60% 30.27 in 10.0 mi NW 18.4 mph 23.0 mph N/A   Overcast
9:34 PM 37.4 °F 28.5 °F 26.6 °F 65% 30.28 in 10.0 mi NW 15.0 mph 20.7 mph N/A   Overcast
9:53 PM 37.0 °F 27.0 °F 26.1 °F 65% 30.29 in 10.0 mi NW 18.4 mph 23.0 mph N/A   Overcast
10:53 PM 36.0 °F 28.5 °F 25.0 °F 64% 30.30 in 10.0 mi NNW 10.4 mph - N/A   Overcast
11:53 PM 35.1 °F 25.9 °F 25.0 °F 67% 30.31 in 10.0 mi North 13.8 mph - N/A   Overcast